Time,TemperatureF,DewpointF,PressureIn,WindDirection,WindDirectionDegrees,WindSpeedMPH,WindSpeedGustMPH,Humidity,HourlyPrecipIn,Conditions,Clouds,dailyrainin,SoftwareType,DateUTC
2013-10-06 00:01:00,68.4,65.7,29.95,SE,144,3.0,4.0,91,0.00,,---,0.00,VWS V13.01,2013-10-06 04:01:00,
2013-10-06 00:02:00,68.4,65.7,29.95,SE,146,0.0,4.0,91,0.00,,---,0.00,VWS V13.01,2013-10-06 04:02:00,
2013-10-06 00:07:00,68.5,65.8,29.95,SE,143,1.0,4.0,91,0.00,,---,0.00,VWS V13.01,2013-10-06 04:07:00,
2013-10-06 00:12:00,68.6,65.9,29.95,SE,142,2.0,4.0,91,0.00,,---,0.00,VWS V13.01,2013-10-06 04:12:00,
2013-10-06 00:17:00,68.8,65.8,29.95,SE,142,1.0,4.0,90,0.00,,---,0.00,VWS V13.01,2013-10-06 04:17:00,
2013-10-06 00:22:00,68.9,65.8,29.95,SSE,153,2.0,2.0,90,0.00,,---,0.00,VWS V13.01,2013-10-06 04:22:00,
2013-10-06 00:27:00,69.0,65.9,29.95,SSE,153,1.0,2.0,90,0.00,,---,0.00,VWS V13.01,2013-10-06 04:27:00,
2013-10-06 00:32:00,69.1,66.1,29.95,SSE,153,0.0,1.0,90,0.00,,---,0.00,VWS V13.01,2013-10-06 04:32:00,
2013-10-06 00:37:00,69.1,66.1,29.95,SSE,153,0.0,1.0,90,0.00,,---,0.00,VWS V13.01,2013-10-06 04:37:00,
2013-10-06 00:42:00,69.0,65.9,29.95,SSE,153,0.0,0.0,90,0.00,,---,0.00,VWS V13.01,2013-10-06 04:42:00,
2013-10-06 00:47:00,68.9,65.8,29.94,SSE,153,0.0,1.0,90,0.00,,---,0.00,VWS V13.01,2013-10-06 04:47:00,
2013-10-06 00:52:00,68.9,65.8,29.94,SE,139,0.0,1.0,90,0.00,,---,0.00,VWS V13.01,2013-10-06 04:52:00,
2013-10-06 00:57:00,68.8,65.8,29.94,SE,139,0.0,1.0,90,0.00,,---,0.00,VWS V13.01,2013-10-06 04:57:00,
2013-10-06 01:02:00,68.8,65.8,29.93,SE,139,0.0,1.0,90,0.00,,---,0.00,VWS V13.01,2013-10-06 05:02:00,
2013-10-06 01:07:00,68.6,65.9,29.94,SE,139,1.0,1.0,91,0.00,,---,0.00,VWS V13.01,2013-10-06 05:07:00,
2013-10-06 01:12:00,68.6,65.9,29.94,SE,139,0.0,0.0,91,0.00,,---,0.00,VWS V13.01,2013-10-06 05:12:00,
2013-10-06 01:17:00,68.4,65.7,29.94,SE,139,0.0,0.0,91,0.00,,---,0.00,VWS V13.01,2013-10-06 05:17:00,
2013-10-06 01:22:00,68.3,65.6,29.94,SE,139,0.0,0.0,91,0.00,,---,0.00,VWS V13.01,2013-10-06 05:22:00,
2013-10-06 01:27:00,68.2,65.5,29.93,SE,139,0.0,0.0,91,0.00,,---,0.00,VWS V13.01,2013-10-06 05:27:00,
2013-10-06 01:32:00,68.1,65.4,29.93,SE,139,0.0,0.0,91,0.00,,---,0.00,VWS V13.01,2013-10-06 05:32:00,
2013-10-06 01:37:00,67.9,65.2,29.93,SE,139,0.0,0.0,91,0.00,,---,0.00,VWS V13.01,2013-10-06 05:37:00,
2013-10-06 01:42:00,67.8,65.4,29.94,SE,139,0.0,0.0,92,0.00,,---,0.00,VWS V13.01,2013-10-06 05:42:00,
2013-10-06 01:47:00,67.7,65.3,29.94,SE,139,0.0,0.0,92,0.00,,---,0.00,VWS V13.01,2013-10-06 05:47:00,
2013-10-06 01:52:00,67.6,65.2,29.94,SE,139,0.0,0.0,92,0.00,,---,0.00,VWS V13.01,2013-10-06 05:52:00,
2013-10-06 01:57:00,67.5,65.1,29.94,SE,139,0.0,0.0,92,0.00,,---,0.00,VWS V13.01,2013-10-06 05:57:00,
2013-10-06 02:02:00,67.4,65.0,29.93,SE,139,0.0,0.0,92,0.00,,---,0.00,VWS V13.01,2013-10-06 06:02:00,
2013-10-06 02:07:00,67.3,65.2,29.93,SE,139,0.0,0.0,93,0.00,,---,0.00,VWS V13.01,2013-10-06 06:07:00,
2013-10-06 02:12:00,67.3,65.2,29.93,SE,139,0.0,0.0,93,0.00,,---,0.00,VWS V13.01,2013-10-06 06:12:00,
2013-10-06 02:17:00,67.2,65.1,29.93,SE,139,0.0,0.0,93,0.00,,---,0.00,VWS V13.01,2013-10-06 06:17:00,
2013-10-06 02:22:00,67.1,65.0,29.93,SE,139,0.0,0.0,93,0.00,,---,0.00,VWS V13.01,2013-10-06 06:22:00,
2013-10-06 02:27:00,67.1,65.0,29.93,SE,139,0.0,0.0,93,0.00,,---,0.00,VWS V13.01,2013-10-06 06:27:00,
2013-10-06 02:32:00,67.1,65.0,29.93,SE,139,0.0,0.0,93,0.00,,---,0.00,VWS V13.01,2013-10-06 06:32:00,
2013-10-06 02:37:00,67.1,65.0,29.93,SE,139,0.0,0.0,93,0.00,,---,0.00,VWS V13.01,2013-10-06 06:37:00,
2013-10-06 02:42:00,67.0,64.9,29.93,SE,139,0.0,0.0,93,0.00,,---,0.00,VWS V13.01,2013-10-06 06:42:00,
2013-10-06 02:47:00,67.0,65.2,29.93,SE,139,0.0,0.0,94,0.00,,---,0.00,VWS V13.01,2013-10-06 06:47:00,
2013-10-06 02:52:00,67.0,65.2,29.93,SE,139,0.0,0.0,94,0.00,,---,0.00,VWS V13.01,2013-10-06 06:52:00,
2013-10-06 02:57:00,67.0,65.2,29.92,SE,139,0.0,0.0,94,0.00,,---,0.00,VWS V13.01,2013-10-06 06:57:00,
2013-10-06 03:02:00,66.9,65.1,29.93,SE,139,0.0,0.0,94,0.00,,---,0.00,VWS V13.01,2013-10-06 07:02:00,
2013-10-06 03:07:00,66.9,65.1,29.93,SE,139,0.0,0.0,94,0.00,,---,0.00,VWS V13.01,2013-10-06 07:07:00,
2013-10-06 03:12:00,66.8,65.0,29.92,SE,139,0.0,0.0,94,0.00,,---,0.00,VWS V13.01,2013-10-06 07:12:00,
2013-10-06 03:17:00,66.8,65.0,29.92,SE,139,0.0,0.0,94,0.00,,---,0.00,VWS V13.01,2013-10-06 07:17:00,
2013-10-06 03:22:00,66.7,64.9,29.92,SE,139,0.0,0.0,94,0.00,,---,0.00,VWS V13.01,2013-10-06 07:22:00,
2013-10-06 03:27:00,66.7,64.9,29.92,SE,139,0.0,0.0,94,0.00,,---,0.00,VWS V13.01,2013-10-06 07:27:00,
2013-10-06 03:32:00,66.7,64.9,29.92,SE,139,0.0,0.0,94,0.00,,---,0.00,VWS V13.01,2013-10-06 07:32:00,
2013-10-06 03:37:00,66.7,64.9,29.91,SE,139,0.0,0.0,94,0.00,,---,0.00,VWS V13.01,2013-10-06 07:37:00,
2013-10-06 03:42:00,66.7,64.9,29.92,SE,139,0.0,0.0,94,0.00,,---,0.00,VWS V13.01,2013-10-06 07:42:00,
2013-10-06 03:47:00,66.7,64.9,29.91,SE,139,0.0,0.0,94,0.00,,---,0.00,VWS V13.01,2013-10-06 07:47:00,
2013-10-06 03:52:00,66.7,64.9,29.91,SE,139,0.0,0.0,94,0.00,,---,0.00,VWS V13.01,2013-10-06 07:52:00,
2013-10-06 03:57:00,66.7,64.9,29.91,SE,139,0.0,1.0,94,0.00,,---,0.00,VWS V13.01,2013-10-06 07:57:00,
2013-10-06 04:02:00,66.7,65.2,29.91,SE,139,0.0,0.0,95,0.00,,---,0.00,VWS V13.01,2013-10-06 08:02:00,
2013-10-06 04:07:00,66.8,65.3,29.91,SE,139,0.0,0.0,95,0.00,,---,0.00,VWS V13.01,2013-10-06 08:07:00,
2013-10-06 04:12:00,66.8,65.3,29.91,SE,139,0.0,0.0,95,0.00,,---,0.00,VWS V13.01,2013-10-06 08:12:00,
2013-10-06 04:17:00,66.8,65.3,29.91,SE,139,0.0,0.0,95,0.00,,---,0.00,VWS V13.01,2013-10-06 08:17:00,
2013-10-06 04:22:00,66.8,65.3,29.91,SE,139,0.0,0.0,95,0.00,,---,0.00,VWS V13.01,2013-10-06 08:22:00,
2013-10-06 04:27:00,66.8,65.0,29.91,SE,139,0.0,0.0,94,0.00,,---,0.00,VWS V13.01,2013-10-06 08:27:00,
2013-10-06 04:32:00,66.7,64.9,29.91,SE,139,0.0,0.0,94,0.00,,---,0.00,VWS V13.01,2013-10-06 08:32:00,
2013-10-06 04:37:00,66.7,64.9,29.90,SE,139,0.0,0.0,94,0.00,,---,0.00,VWS V13.01,2013-10-06 08:37:00,
2013-10-06 04:42:00,66.7,64.9,29.90,SE,139,0.0,0.0,94,0.00,,---,0.00,VWS V13.01,2013-10-06 08:42:00,
2013-10-06 04:47:00,66.7,64.9,29.90,SE,139,0.0,0.0,94,0.00,,---,0.00,VWS V13.01,2013-10-06 08:47:00,
2013-10-06 04:52:00,66.6,64.8,29.90,SE,139,0.0,0.0,94,0.00,,---,0.00,VWS V13.01,2013-10-06 08:52:00,
2013-10-06 04:57:00,66.6,64.8,29.90,SE,139,0.0,0.0,94,0.00,,---,0.00,VWS V13.01,2013-10-06 08:57:00,
2013-10-06 05:02:00,66.6,64.8,29.91,SE,139,0.0,1.0,94,0.00,,---,0.00,VWS V13.01,2013-10-06 09:02:00,
2013-10-06 05:07:00,66.6,64.8,29.90,SE,139,0.0,1.0,94,0.00,,---,0.00,VWS V13.01,2013-10-06 09:07:00,
2013-10-06 05:10:00,66.6,64.8,29.91,SE,139,0.0,0.0,94,0.00,,---,0.00,VWS V13.01,2013-10-06 09:10:00,
2013-10-06 05:15:00,66.6,64.8,29.91,SE,139,0.0,1.0,94,0.00,,---,0.00,VWS V13.01,2013-10-06 09:15:00,
2013-10-06 05:20:00,66.6,64.8,29.91,SE,139,0.0,0.0,94,0.00,,---,0.00,VWS V13.01,2013-10-06 09:20:00,
2013-10-06 05:25:00,66.5,64.7,29.90,SE,139,0.0,0.0,94,0.00,,---,0.00,VWS V13.01,2013-10-06 09:25:00,
2013-10-06 05:30:00,66.5,64.7,29.90,SE,139,0.0,0.0,94,0.00,,---,0.00,VWS V13.01,2013-10-06 09:30:00,
2013-10-06 05:35:00,66.5,65.0,29.90,SE,139,0.0,0.0,95,0.00,,---,0.00,VWS V13.01,2013-10-06 09:35:00,
2013-10-06 05:40:00,66.5,65.0,29.90,SE,139,0.0,0.0,95,0.00,,---,0.00,VWS V13.01,2013-10-06 09:40:00,
2013-10-06 05:45:00,66.6,65.1,29.90,SE,139,0.0,0.0,95,0.00,,---,0.00,VWS V13.01,2013-10-06 09:45:00,
2013-10-06 05:50:00,66.5,64.7,29.90,SE,139,0.0,0.0,94,0.00,,---,0.00,VWS V13.01,2013-10-06 09:50:00,
2013-10-06 05:55:00,66.5,64.7,29.90,SE,139,0.0,1.0,94,0.00,,---,0.00,VWS V13.01,2013-10-06 09:55:00,
2013-10-06 06:00:00,66.5,64.7,29.90,SE,139,0.0,0.0,94,0.00,,---,0.00,VWS V13.01,2013-10-06 10:00:00,
2013-10-06 06:05:00,66.5,64.7,29.90,SE,139,0.0,0.0,94,0.00,,---,0.00,VWS V13.01,2013-10-06 10:05:00,
2013-10-06 06:10:00,66.4,64.6,29.90,SE,139,0.0,0.0,94,0.00,,---,0.00,VWS V13.01,2013-10-06 10:10:00,
2013-10-06 06:15:00,66.5,64.7,29.90,SE,139,0.0,0.0,94,0.00,,---,0.00,VWS V13.01,2013-10-06 10:15:00,
2013-10-06 06:20:00,66.4,64.6,29.90,SE,139,0.0,0.0,94,0.00,,---,0.00,VWS V13.01,2013-10-06 10:20:00,
2013-10-06 06:25:00,66.4,64.6,29.90,SE,139,0.0,1.0,94,0.00,,---,0.00,VWS V13.01,2013-10-06 10:25:00,
2013-10-06 06:30:00,66.5,64.7,29.90,SE,139,0.0,0.0,94,0.00,,---,0.00,VWS V13.01,2013-10-06 10:30:00,
2013-10-06 06:35:00,66.5,64.7,29.90,SE,139,0.0,0.0,94,0.00,,---,0.00,VWS V13.01,2013-10-06 10:35:00,
2013-10-06 06:40:00,66.5,64.7,29.90,SE,139,0.0,0.0,94,0.00,,---,0.00,VWS V13.01,2013-10-06 10:40:00,
2013-10-06 06:45:00,66.5,64.7,29.90,SE,139,0.0,0.0,94,0.00,,---,0.00,VWS V13.01,2013-10-06 10:45:00,
2013-10-06 06:50:00,66.4,64.3,29.90,SE,139,0.0,0.0,93,0.00,,---,0.00,VWS V13.01,2013-10-06 10:50:00,
2013-10-06 06:55:00,66.4,64.3,29.90,SE,139,0.0,0.0,93,0.00,,---,0.00,VWS V13.01,2013-10-06 10:55:00,
2013-10-06 07:00:00,66.4,64.3,29.90,SE,139,0.0,0.0,93,0.00,,---,0.00,VWS V13.01,2013-10-06 11:00:00,
2013-10-06 07:05:00,66.3,64.2,29.90,SE,139,0.0,0.0,93,0.00,,---,0.00,VWS V13.01,2013-10-06 11:05:00,
2013-10-06 07:10:00,66.2,64.1,29.90,SE,139,0.0,0.0,93,0.00,,---,0.00,VWS V13.01,2013-10-06 11:10:00,
2013-10-06 07:15:00,66.2,64.1,29.91,SE,139,0.0,0.0,93,0.00,,---,0.00,VWS V13.01,2013-10-06 11:15:00,
2013-10-06 07:20:00,66.1,64.0,29.91,SE,139,0.0,0.0,93,0.00,,---,0.00,VWS V13.01,2013-10-06 11:20:00,
2013-10-06 07:25:00,66.1,64.3,29.91,SE,139,0.0,0.0,94,0.00,,---,0.00,VWS V13.01,2013-10-06 11:25:00,
2013-10-06 07:30:00,66.0,63.9,29.91,SE,139,0.0,0.0,93,0.00,,---,0.00,VWS V13.01,2013-10-06 11:30:00,
2013-10-06 07:35:00,65.9,63.8,29.91,SE,139,0.0,0.0,93,0.00,,---,0.00,VWS V13.01,2013-10-06 11:35:00,
2013-10-06 07:40:00,65.8,63.7,29.91,SE,139,0.0,0.0,93,0.00,,---,0.00,VWS V13.01,2013-10-06 11:40:00,
2013-10-06 07:45:00,65.7,63.6,29.91,SE,139,0.0,0.0,93,0.00,,---,0.00,VWS V13.01,2013-10-06 11:45:00,
2013-10-06 07:50:00,65.7,63.6,29.91,SE,139,0.0,0.0,93,0.00,,---,0.00,VWS V13.01,2013-10-06 11:50:00,
2013-10-06 07:55:00,65.7,63.6,29.91,SE,139,0.0,0.0,93,0.00,,---,0.00,VWS V13.01,2013-10-06 11:55:00,
2013-10-06 08:00:00,65.7,63.6,29.91,SE,139,0.0,0.0,93,0.00,,---,0.00,VWS V13.01,2013-10-06 12:00:00,
2013-10-06 08:05:00,65.8,63.7,29.91,SE,139,0.0,0.0,93,0.00,,---,0.00,VWS V13.01,2013-10-06 12:05:00,
2013-10-06 08:10:00,65.9,64.1,29.91,SE,139,0.0,0.0,94,0.00,,---,0.00,VWS V13.01,2013-10-06 12:10:00,
2013-10-06 08:15:00,66.1,64.3,29.91,SE,139,0.0,1.0,94,0.00,,---,0.00,VWS V13.01,2013-10-06 12:15:00,
2013-10-06 08:20:00,66.5,64.7,29.92,SE,139,0.0,0.0,94,0.00,,---,0.00,VWS V13.01,2013-10-06 12:20:00,
2013-10-06 08:25:00,66.9,65.1,29.92,SE,139,0.0,0.0,94,0.00,,---,0.00,VWS V13.01,2013-10-06 12:25:00,
2013-10-06 08:30:00,67.5,65.7,29.92,SE,139,0.0,0.0,94,0.00,,---,0.00,VWS V13.01,2013-10-06 12:30:00,
2013-10-06 08:35:00,67.9,65.5,29.92,SE,139,0.0,0.0,92,0.00,,---,0.00,VWS V13.01,2013-10-06 12:35:00,
2013-10-06 08:40:00,68.2,65.8,29.92,SE,139,0.0,0.0,92,0.00,,---,0.00,VWS V13.01,2013-10-06 12:40:00,
2013-10-06 08:45:00,68.7,66.3,29.92,SE,139,0.0,0.0,92,0.00,,---,0.00,VWS V13.01,2013-10-06 12:45:00,
2013-10-06 08:50:00,69.2,66.5,29.92,SE,139,0.0,0.0,91,0.00,,---,0.00,VWS V13.01,2013-10-06 12:50:00,
2013-10-06 08:55:00,69.7,67.0,29.92,SE,139,0.0,0.0,91,0.00,,---,0.00,VWS V13.01,2013-10-06 12:55:00,
2013-10-06 09:00:00,70.0,67.3,29.92,SE,139,0.0,0.0,91,0.00,,---,0.00,VWS V13.01,2013-10-06 13:00:00,
2013-10-06 09:05:00,70.3,66.9,29.92,SE,139,0.0,0.0,89,0.00,,---,0.00,VWS V13.01,2013-10-06 13:05:00,
2013-10-06 09:10:00,70.7,67.0,29.92,SE,139,0.0,0.0,88,0.00,,---,0.00,VWS V13.01,2013-10-06 13:10:00,
2013-10-06 09:15:00,71.0,67.3,29.92,SE,139,0.0,0.0,88,0.00,,---,0.00,VWS V13.01,2013-10-06 13:15:00,
2013-10-06 09:20:00,71.4,67.3,29.92,SE,139,0.0,0.0,87,0.00,,---,0.00,VWS V13.01,2013-10-06 13:20:00,
2013-10-06 09:25:00,71.7,67.6,29.92,SE,139,0.0,0.0,87,0.00,,---,0.00,VWS V13.01,2013-10-06 13:25:00,
2013-10-06 09:30:00,72.0,66.6,29.92,SE,139,0.0,0.0,83,0.00,,---,0.00,VWS V13.01,2013-10-06 13:30:00,
2013-10-06 09:35:00,72.3,67.2,29.91,SE,139,0.0,1.0,84,0.00,,---,0.00,VWS V13.01,2013-10-06 13:35:00,
2013-10-06 09:40:00,72.5,66.3,29.92,SE,139,0.0,1.0,81,0.00,,---,0.00,VWS V13.01,2013-10-06 13:40:00,
2013-10-06 09:45:00,73.0,66.8,29.91,SSE,157,2.0,3.0,81,0.00,,---,0.00,VWS V13.01,2013-10-06 13:45:00,
2013-10-06 09:50:00,73.5,66.6,29.91,South,187,4.0,4.0,79,0.00,,---,0.00,VWS V13.01,2013-10-06 13:50:00,
2013-10-06 09:55:00,74.2,66.5,29.91,South,178,2.0,4.0,77,0.00,,---,0.00,VWS V13.01,2013-10-06 13:55:00,
2013-10-06 10:00:00,75.0,66.2,29.90,SSW,194,3.0,3.0,74,0.00,,---,0.00,VWS V13.01,2013-10-06 14:00:00,
2013-10-06 10:05:00,75.7,66.0,29.90,SSW,202,0.0,4.0,72,0.00,,---,0.00,VWS V13.01,2013-10-06 14:05:00,
2013-10-06 10:10:00,76.1,66.4,29.90,South,171,1.0,4.0,72,0.00,,---,0.00,VWS V13.01,2013-10-06 14:10:00,
2013-10-06 10:15:00,76.7,67.0,29.90,South,174,0.0,5.0,72,0.00,,---,0.00,VWS V13.01,2013-10-06 14:15:00,
2013-10-06 10:20:00,77.1,66.6,29.90,South,190,2.0,4.0,70,0.00,,---,0.00,VWS V13.01,2013-10-06 14:20:00,
2013-10-06 10:25:00,77.5,66.5,29.90,SW,220,4.0,6.0,69,0.00,,---,0.00,VWS V13.01,2013-10-06 14:25:00,
2013-10-06 10:30:00,77.8,66.0,29.91,SSW,213,1.0,8.0,67,0.00,,---,0.00,VWS V13.01,2013-10-06 14:30:00,
2013-10-06 10:35:00,78.2,65.9,29.91,SSW,208,10.0,10.0,66,0.00,,---,0.00,VWS V13.01,2013-10-06 14:35:00,
2013-10-06 10:40:00,78.4,65.7,29.90,SSW,213,7.0,11.0,65,0.00,,---,0.00,VWS V13.01,2013-10-06 14:40:00,
2013-10-06 10:45:00,78.7,66.0,29.91,WSW,242,6.0,12.0,65,0.00,,---,0.00,VWS V13.01,2013-10-06 14:45:00,
2013-10-06 10:50:00,79.0,65.8,29.90,SSW,211,8.0,14.0,64,0.00,,---,0.00,VWS V13.01,2013-10-06 14:50:00,
2013-10-06 10:55:00,79.2,66.0,29.90,SSW,213,7.0,14.0,64,0.00,,---,0.00,VWS V13.01,2013-10-06 14:55:00,
2013-10-06 11:00:00,79.4,66.6,29.90,SSW,202,6.0,14.0,65,0.00,,---,0.00,VWS V13.01,2013-10-06 15:00:00,
2013-10-06 11:06:00,79.8,66.1,29.90,WSW,239,8.0,14.0,63,0.00,,---,0.00,VWS V13.01,2013-10-06 15:06:00,
2013-10-06 11:11:00,80.2,66.5,29.90,South,169,6.0,12.0,63,0.00,,---,0.00,VWS V13.01,2013-10-06 15:11:00,
2013-10-06 11:16:00,80.4,66.2,29.90,South,177,10.0,12.0,62,0.00,,---,0.00,VWS V13.01,2013-10-06 15:16:00,
2013-10-06 11:21:00,80.7,66.0,29.90,SW,229,6.0,14.0,61,0.00,,---,0.00,VWS V13.01,2013-10-06 15:21:00,
2013-10-06 11:26:00,80.9,66.2,29.89,South,191,11.0,15.0,61,0.00,,---,0.00,VWS V13.01,2013-10-06 15:26:00,
2013-10-06 11:31:00,81.1,65.9,29.89,WSW,238,8.0,15.0,60,0.00,,---,0.00,VWS V13.01,2013-10-06 15:31:00,
2013-10-06 11:36:00,81.1,65.9,29.90,SW,218,12.0,17.0,60,0.00,,---,0.00,VWS V13.01,2013-10-06 15:36:00,
2013-10-06 11:41:00,81.2,66.0,29.89,SW,236,8.0,14.0,60,0.00,,---,0.00,VWS V13.01,2013-10-06 15:41:00,
2013-10-06 11:46:00,81.4,66.2,29.89,SW,222,9.0,15.0,60,0.00,,---,0.00,VWS V13.01,2013-10-06 15:46:00,
2013-10-06 11:51:00,81.4,66.2,29.89,SSW,196,7.0,14.0,60,0.00,,---,0.00,VWS V13.01,2013-10-06 15:51:00,
2013-10-06 11:56:00,81.4,65.7,29.89,SSW,203,4.0,14.0,59,0.00,,---,0.00,VWS V13.01,2013-10-06 15:56:00,
2013-10-06 12:00:00,81.5,65.3,29.89,SW,221,13.0,18.0,58,0.00,,---,0.00,VWS V13.01,2013-10-06 16:00:00,
2013-10-06 12:06:00,81.4,65.2,29.89,SW,220,8.0,18.0,58,0.00,,---,0.00,VWS V13.01,2013-10-06 16:06:00,
2013-10-06 12:11:00,81.5,65.8,29.89,SW,219,5.0,12.0,59,0.00,,---,0.00,VWS V13.01,2013-10-06 16:11:00,
2013-10-06 12:16:00,81.6,65.9,29.89,SSW,194,7.0,13.0,59,0.00,,---,0.00,VWS V13.01,2013-10-06 16:16:00,
2013-10-06 12:21:00,81.9,66.2,29.88,SW,219,9.0,11.0,59,0.00,,---,0.00,VWS V13.01,2013-10-06 16:21:00,
2013-10-06 12:26:00,82.2,66.0,29.88,SSW,196,9.0,14.0,58,0.00,,---,0.00,VWS V13.01,2013-10-06 16:26:00,
2013-10-06 12:30:00,82.5,66.2,29.88,SSW,195,7.0,12.0,58,0.00,,---,0.00,VWS V13.01,2013-10-06 16:30:00,
2013-10-06 12:35:00,82.8,65.5,29.88,SSW,199,9.0,18.0,56,0.00,,---,0.00,VWS V13.01,2013-10-06 16:35:00,
2013-10-06 12:40:00,82.9,66.1,29.88,West,261,6.0,9.0,57,0.00,,---,0.00,VWS V13.01,2013-10-06 16:40:00,
2013-10-06 12:46:00,82.8,66.0,29.88,WSW,250,9.0,14.0,57,0.00,,---,0.00,VWS V13.01,2013-10-06 16:46:00,
2013-10-06 12:51:00,82.9,66.1,29.87,SW,216,5.0,9.0,57,0.00,,---,0.00,VWS V13.01,2013-10-06 16:51:00,
2013-10-06 12:56:00,83.2,65.9,29.87,SW,230,5.0,13.0,56,0.00,,---,0.00,VWS V13.01,2013-10-06 16:56:00,
2013-10-06 13:01:00,83.5,66.2,29.87,WSW,242,8.0,11.0,56,0.00,,---,0.00,VWS V13.01,2013-10-06 17:01:00,
2013-10-06 13:06:00,83.8,66.4,29.86,SW,236,10.0,14.0,56,0.00,,---,0.00,VWS V13.01,2013-10-06 17:06:00,
2013-10-06 13:11:00,84.1,66.2,29.86,WSW,238,9.0,13.0,55,0.00,,---,0.00,VWS V13.01,2013-10-06 17:11:00,
2013-10-06 13:16:00,84.1,66.7,29.85,SSW,212,7.0,13.0,56,0.00,,---,0.00,VWS V13.01,2013-10-06 17:16:00,
2013-10-06 13:21:00,84.2,65.8,29.85,SSW,197,8.0,11.0,54,0.00,,---,0.00,VWS V13.01,2013-10-06 17:21:00,
2013-10-06 13:26:00,84.3,65.9,29.85,SSW,213,7.0,11.0,54,0.00,,---,0.00,VWS V13.01,2013-10-06 17:26:00,
2013-10-06 13:31:00,84.3,65.9,29.85,SW,220,3.0,11.0,54,0.00,,---,0.00,VWS V13.01,2013-10-06 17:31:00,
2013-10-06 13:36:00,84.3,65.9,29.85,SSW,198,11.0,11.0,54,0.00,,---,0.00,VWS V13.01,2013-10-06 17:36:00,
2013-10-06 13:41:00,84.5,66.1,29.84,SW,218,3.0,7.0,54,0.00,,---,0.00,VWS V13.01,2013-10-06 17:41:00,
2013-10-06 13:46:00,85.1,67.1,29.84,SSW,213,9.0,9.0,55,0.00,,---,0.00,VWS V13.01,2013-10-06 17:46:00,
2013-10-06 13:51:00,85.3,66.2,29.83,SW,219,5.0,7.0,53,0.00,,---,0.00,VWS V13.01,2013-10-06 17:51:00,
2013-10-06 13:55:00,85.5,65.9,29.83,SSE,156,3.0,7.0,52,0.00,,---,0.00,VWS V13.01,2013-10-06 17:55:00,
2013-10-06 14:00:00,85.9,66.2,29.83,SW,214,5.0,9.0,52,0.00,,---,0.00,VWS V13.01,2013-10-06 18:00:00,
2013-10-06 14:05:00,85.9,65.7,29.83,SW,227,5.0,11.0,51,0.00,,---,0.00,VWS V13.01,2013-10-06 18:05:00,
2013-10-06 14:10:00,85.9,66.2,29.83,WSW,246,8.0,8.0,52,0.00,,---,0.00,VWS V13.01,2013-10-06 18:10:00,
2013-10-06 14:15:00,85.9,64.5,29.83,WSW,240,9.0,11.0,49,0.00,,---,0.00,VWS V13.01,2013-10-06 18:15:00,
2013-10-06 14:20:00,85.7,64.9,29.82,SW,221,4.0,6.0,50,0.00,,---,0.00,VWS V13.01,2013-10-06 18:20:00,
2013-10-06 14:25:00,85.8,65.0,29.82,SW,221,11.0,13.0,50,0.00,,---,0.00,VWS V13.01,2013-10-06 18:25:00,
2013-10-06 14:30:00,85.8,64.4,29.82,SW,218,8.0,12.0,49,0.00,,---,0.00,VWS V13.01,2013-10-06 18:30:00,
2013-10-06 14:35:00,85.9,65.1,29.82,SSW,207,7.0,13.0,50,0.00,,---,0.00,VWS V13.01,2013-10-06 18:35:00,
2013-10-06 14:40:00,86.0,64.6,29.82,SW,215,3.0,10.0,49,0.00,,---,0.00,VWS V13.01,2013-10-06 18:40:00,
2013-10-06 14:45:00,86.0,65.2,29.81,West,265,5.0,13.0,50,0.00,,---,0.00,VWS V13.01,2013-10-06 18:45:00,
2013-10-06 14:50:00,86.2,64.8,29.81,WSW,257,7.0,11.0,49,0.00,,---,0.00,VWS V13.01,2013-10-06 18:50:00,
2013-10-06 14:55:00,86.3,64.9,29.81,WSW,241,6.0,11.0,49,0.00,,---,0.00,VWS V13.01,2013-10-06 18:55:00,
2013-10-06 15:00:00,86.1,65.3,29.81,SW,220,9.0,11.0,50,0.00,,---,0.00,VWS V13.01,2013-10-06 19:00:00,
2013-10-06 15:05:00,86.1,64.7,29.80,SSW,213,8.0,12.0,49,0.00,,---,0.00,VWS V13.01,2013-10-06 19:05:00,
2013-10-06 15:10:00,86.1,64.7,29.80,West,265,5.0,12.0,49,0.00,,---,0.00,VWS V13.01,2013-10-06 19:10:00,
2013-10-06 15:15:00,86.2,65.4,29.80,SW,222,3.0,12.0,50,0.00,,---,0.00,VWS V13.01,2013-10-06 19:15:00,
2013-10-06 15:21:00,86.5,65.1,29.80,SW,227,6.0,8.0,49,0.00,,---,0.00,VWS V13.01,2013-10-06 19:21:00,
2013-10-06 15:26:00,86.7,64.7,29.79,WSW,257,9.0,12.0,48,0.00,,---,0.00,VWS V13.01,2013-10-06 19:26:00,
2013-10-06 15:31:00,86.7,64.7,29.79,SSW,197,8.0,9.0,48,0.00,,---,0.00,VWS V13.01,2013-10-06 19:31:00,
2013-10-06 15:36:00,86.6,64.0,29.79,SSW,203,6.0,12.0,47,0.00,,---,0.00,VWS V13.01,2013-10-06 19:36:00,
2013-10-06 15:41:00,86.6,64.0,29.79,SW,215,7.0,11.0,47,0.00,,---,0.00,VWS V13.01,2013-10-06 19:41:00,
2013-10-06 15:46:00,86.7,64.1,29.78,SSW,204,5.0,12.0,47,0.00,,---,0.00,VWS V13.01,2013-10-06 19:46:00,
2013-10-06 15:51:00,86.7,64.1,29.78,SSW,202,6.0,7.0,47,0.00,,---,0.00,VWS V13.01,2013-10-06 19:51:00,
2013-10-06 15:56:00,87.0,64.3,29.78,South,176,3.0,9.0,47,0.00,,---,0.00,VWS V13.01,2013-10-06 19:56:00,
2013-10-06 16:01:00,87.3,63.4,29.78,South,188,3.0,8.0,45,0.00,,---,0.00,VWS V13.01,2013-10-06 20:01:00,
2013-10-06 16:06:00,87.4,63.5,29.78,South,171,4.0,12.0,45,0.00,,---,0.00,VWS V13.01,2013-10-06 20:06:00,
2013-10-06 16:11:00,87.2,63.3,29.78,SSW,193,7.0,9.0,45,0.00,,---,0.00,VWS V13.01,2013-10-06 20:11:00,
2013-10-06 16:16:00,87.3,62.1,29.78,SSW,194,7.0,10.0,43,0.00,,---,0.00,VWS V13.01,2013-10-06 20:16:00,
2013-10-06 16:21:00,87.2,62.7,29.77,SW,221,7.0,14.0,44,0.00,,---,0.00,VWS V13.01,2013-10-06 20:21:00,
2013-10-06 16:26:00,87.0,62.5,29.77,South,171,6.0,14.0,44,0.00,,---,0.00,VWS V13.01,2013-10-06 20:26:00,
2013-10-06 16:31:00,86.9,62.4,29.77,SSW,194,7.0,8.0,44,0.00,,---,0.00,VWS V13.01,2013-10-06 20:31:00,
2013-10-06 16:36:00,86.5,62.7,29.77,SW,221,5.0,10.0,45,0.00,,---,0.00,VWS V13.01,2013-10-06 20:36:00,
2013-10-06 16:41:00,86.4,62.6,29.76,SSW,204,6.0,8.0,45,0.00,,---,0.00,VWS V13.01,2013-10-06 20:41:00,
2013-10-06 16:46:00,86.2,62.4,29.76,South,175,2.0,8.0,45,0.00,,---,0.00,VWS V13.01,2013-10-06 20:46:00,
2013-10-06 16:51:00,86.2,62.4,29.76,South,173,0.0,6.0,45,0.00,,---,0.00,VWS V13.01,2013-10-06 20:51:00,
2013-10-06 16:56:00,86.2,61.8,29.76,South,184,3.0,6.0,44,0.00,,---,0.00,VWS V13.01,2013-10-06 20:56:00,
2013-10-06 17:01:00,85.9,62.7,29.76,South,188,2.0,3.0,46,0.00,,---,0.00,VWS V13.01,2013-10-06 21:01:00,
2013-10-06 17:06:00,85.5,63.6,29.76,South,173,0.0,3.0,48,0.00,,---,0.00,VWS V13.01,2013-10-06 21:06:00,
2013-10-06 17:11:00,85.2,63.9,29.76,SSE,154,0.0,3.0,49,0.00,,---,0.00,VWS V13.01,2013-10-06 21:11:00,
2013-10-06 17:16:00,84.8,63.5,29.75,SSE,154,1.0,3.0,49,0.00,,---,0.00,VWS V13.01,2013-10-06 21:16:00,
2013-10-06 17:21:00,84.5,64.4,29.76,SSE,154,0.0,1.0,51,0.00,,---,0.00,VWS V13.01,2013-10-06 21:21:00,
2013-10-06 17:26:00,84.2,64.7,29.76,SSE,154,1.0,1.0,52,0.00,,---,0.00,VWS V13.01,2013-10-06 21:26:00,
2013-10-06 17:31:00,84.0,65.6,29.76,SSE,154,0.0,1.0,54,0.00,,---,0.00,VWS V13.01,2013-10-06 21:31:00,
2013-10-06 17:36:00,83.8,64.9,29.75,SSE,154,0.0,3.0,53,0.00,,---,0.00,VWS V13.01,2013-10-06 21:36:00,
2013-10-06 17:41:00,83.4,64.5,29.75,SSE,154,0.0,1.0,53,0.00,,---,0.00,VWS V13.01,2013-10-06 21:41:00,
2013-10-06 17:46:00,82.9,65.1,29.75,SSE,149,0.0,2.0,55,0.00,,---,0.00,VWS V13.01,2013-10-06 21:46:00,
2013-10-06 17:51:00,82.5,65.2,29.76,East,100,0.0,3.0,56,0.00,,---,0.00,VWS V13.01,2013-10-06 21:51:00,
2013-10-06 17:56:00,82.2,65.0,29.75,ESE,107,1.0,3.0,56,0.00,,---,0.00,VWS V13.01,2013-10-06 21:56:00,
2013-10-06 18:01:00,82.0,64.8,29.75,East,83,1.0,2.0,56,0.00,,---,0.00,VWS V13.01,2013-10-06 22:01:00,
2013-10-06 18:06:00,81.9,64.7,29.75,ESE,109,0.0,3.0,56,0.00,,---,0.00,VWS V13.01,2013-10-06 22:06:00,
2013-10-06 18:11:00,81.8,64.6,29.75,South,174,1.0,4.0,56,0.00,,---,0.00,VWS V13.01,2013-10-06 22:11:00,
2013-10-06 18:16:00,81.7,64.0,29.75,South,184,4.0,5.0,55,0.00,,---,0.00,VWS V13.01,2013-10-06 22:16:00,
2013-10-06 18:21:00,81.5,64.3,29.76,South,178,3.0,4.0,56,0.00,,---,0.00,VWS V13.01,2013-10-06 22:21:00,
2013-10-06 18:26:00,81.3,64.6,29.75,South,181,0.0,4.0,57,0.00,,---,0.00,VWS V13.01,2013-10-06 22:26:00,
2013-10-06 18:31:00,81.0,64.8,29.75,SSE,148,1.0,2.0,58,0.00,,---,0.00,VWS V13.01,2013-10-06 22:31:00,
2013-10-06 18:36:00,80.5,64.4,29.75,SSE,148,0.0,2.0,58,0.00,,---,0.00,VWS V13.01,2013-10-06 22:36:00,
2013-10-06 18:41:00,80.1,64.0,29.76,SE,141,0.0,2.0,58,0.00,,---,0.00,VWS V13.01,2013-10-06 22:41:00,
2013-10-06 18:46:00,79.7,63.1,29.76,South,173,1.0,3.0,57,0.00,,---,0.00,VWS V13.01,2013-10-06 22:46:00,
2013-10-06 18:51:00,79.4,63.3,29.76,SSE,157,1.0,2.0,58,0.00,,---,0.00,VWS V13.01,2013-10-06 22:51:00,
2013-10-06 18:56:00,79.1,63.1,29.76,SSE,159,0.0,3.0,58,0.00,,---,0.00,VWS V13.01,2013-10-06 22:56:00,
2013-10-06 19:01:00,78.7,63.2,29.75,SE,124,1.0,2.0,59,0.00,,---,0.00,VWS V13.01,2013-10-06 23:01:00,
2013-10-06 19:06:00,78.2,62.7,29.75,SSE,161,2.0,4.0,59,0.00,,---,0.00,VWS V13.01,2013-10-06 23:06:00,
2013-10-06 19:11:00,78.0,62.0,29.75,South,188,4.0,4.0,58,0.00,,---,0.00,VWS V13.01,2013-10-06 23:11:00,
2013-10-06 19:16:00,77.9,62.0,29.76,South,171,1.0,5.0,58,0.00,,---,0.00,VWS V13.01,2013-10-06 23:16:00,
2013-10-06 19:21:00,77.7,62.2,29.76,SSE,163,0.0,2.0,59,0.00,,---,0.00,VWS V13.01,2013-10-06 23:21:00,
2013-10-06 19:26:00,77.4,62.0,29.76,SSW,195,5.0,5.0,59,0.00,,---,0.00,VWS V13.01,2013-10-06 23:26:00,
2013-10-06 19:31:00,77.2,61.8,29.76,South,187,1.0,4.0,59,0.00,,---,0.00,VWS V13.01,2013-10-06 23:31:00,
2013-10-06 19:36:00,76.9,62.0,29.76,South,182,1.0,5.0,60,0.00,,---,0.00,VWS V13.01,2013-10-06 23:36:00,
2013-10-06 19:41:00,76.7,61.8,29.76,South,184,1.0,3.0,60,0.00,,---,0.00,VWS V13.01,2013-10-06 23:41:00,
2013-10-06 19:46:00,76.4,62.0,29.76,South,188,2.0,4.0,61,0.00,,---,0.00,VWS V13.01,2013-10-06 23:46:00,
2013-10-06 19:51:00,76.1,60.8,29.76,South,184,1.0,5.0,59,0.00,,---,0.00,VWS V13.01,2013-10-06 23:51:00,
2013-10-06 19:56:00,76.1,60.3,29.76,South,190,2.0,5.0,58,0.00,,---,0.00,VWS V13.01,2013-10-06 23:56:00,
2013-10-06 20:01:00,76.2,60.4,29.76,SSE,157,2.0,7.0,58,0.00,,---,0.00,VWS V13.01,2013-10-07 00:01:00,
2013-10-06 20:06:00,76.3,60.0,29.76,South,173,2.0,9.0,57,0.00,,---,0.00,VWS V13.01,2013-10-07 00:06:00,
2013-10-06 20:11:00,76.4,59.6,29.76,SSE,155,4.0,9.0,56,0.00,,---,0.00,VWS V13.01,2013-10-07 00:11:00,
2013-10-06 20:16:00,76.5,59.7,29.76,SSE,155,2.0,9.0,56,0.00,,---,0.00,VWS V13.01,2013-10-07 00:16:00,
2013-10-06 20:21:00,76.4,59.6,29.76,SSE,147,2.0,7.0,56,0.00,,---,0.00,VWS V13.01,2013-10-07 00:21:00,
2013-10-06 20:26:00,76.4,59.6,29.76,SE,140,3.0,7.0,56,0.00,,---,0.00,VWS V13.01,2013-10-07 00:26:00,
2013-10-06 20:31:00,76.1,59.8,29.76,South,188,6.0,7.0,57,0.00,,---,0.00,VWS V13.01,2013-10-07 00:31:00,
2013-10-06 20:36:00,75.8,59.5,29.76,SSE,151,2.0,8.0,57,0.00,,---,0.00,VWS V13.01,2013-10-07 00:36:00,
2013-10-06 20:41:00,75.7,59.4,29.76,SE,127,3.0,5.0,57,0.00,,---,0.00,VWS V13.01,2013-10-07 00:41:00,
2013-10-06 20:46:00,75.6,59.3,29.75,SSE,155,2.0,9.0,57,0.00,,---,0.00,VWS V13.01,2013-10-07 00:46:00,
2013-10-06 20:51:00,75.5,59.7,29.75,ESE,113,0.0,7.0,58,0.00,,---,0.00,VWS V13.01,2013-10-07 00:51:00,
2013-10-06 20:56:00,75.5,59.7,29.75,South,191,5.0,8.0,58,0.00,,---,0.00,VWS V13.01,2013-10-07 00:56:00,
2013-10-06 21:01:00,75.5,59.7,29.75,SSW,211,3.0,7.0,58,0.00,,---,0.00,VWS V13.01,2013-10-07 01:01:00,
2013-10-06 21:06:00,75.6,59.8,29.75,South,190,4.0,10.0,58,0.00,,---,0.00,VWS V13.01,2013-10-07 01:06:00,
2013-10-06 21:11:00,75.6,59.8,29.75,SSE,154,3.0,9.0,58,0.00,,---,0.00,VWS V13.01,2013-10-07 01:11:00,
2013-10-06 21:16:00,75.5,60.2,29.75,South,188,6.0,10.0,59,0.00,,---,0.00,VWS V13.01,2013-10-07 01:16:00,
2013-10-06 21:21:00,75.5,60.2,29.75,SW,217,4.0,9.0,59,0.00,,---,0.00,VWS V13.01,2013-10-07 01:21:00,
2013-10-06 21:26:00,75.5,60.2,29.75,South,169,8.0,11.0,59,0.00,,---,0.00,VWS V13.01,2013-10-07 01:26:00,
2013-10-06 21:31:00,75.5,60.2,29.75,SW,216,7.0,7.0,59,0.00,,---,0.00,VWS V13.01,2013-10-07 01:31:00,
2013-10-06 21:36:00,75.5,60.2,29.75,SE,137,6.0,14.0,59,0.00,,---,0.00,VWS V13.01,2013-10-07 01:36:00,
2013-10-06 21:41:00,75.4,60.1,29.75,South,170,4.0,8.0,59,0.00,,---,0.00,VWS V13.01,2013-10-07 01:41:00,
2013-10-06 21:46:00,75.3,60.0,29.75,ESE,121,2.0,11.0,59,0.00,,---,0.00,VWS V13.01,2013-10-07 01:46:00,
2013-10-06 21:51:00,75.3,60.5,29.75,SSW,192,2.0,10.0,60,0.00,,---,0.00,VWS V13.01,2013-10-07 01:51:00,
2013-10-06 21:56:00,75.2,60.4,29.75,SSW,213,10.0,14.0,60,0.00,,---,0.00,VWS V13.01,2013-10-07 01:56:00,
2013-10-06 22:01:00,75.2,60.4,29.75,SSW,193,3.0,11.0,60,0.00,,---,0.00,VWS V13.01,2013-10-07 02:01:00,
2013-10-06 22:06:00,75.2,60.8,29.75,SSE,149,11.0,12.0,61,0.00,,---,0.00,VWS V13.01,2013-10-07 02:06:00,
2013-10-06 22:11:00,75.1,60.8,29.75,SSE,164,5.0,12.0,61,0.00,,---,0.00,VWS V13.01,2013-10-07 02:11:00,
2013-10-06 22:16:00,75.1,60.8,29.75,SSE,162,2.0,12.0,61,0.00,,---,0.00,VWS V13.01,2013-10-07 02:16:00,
2013-10-06 22:21:00,75.0,60.7,29.75,SSW,203,5.0,7.0,61,0.00,,---,0.00,VWS V13.01,2013-10-07 02:21:00,
2013-10-06 22:26:00,74.9,61.0,29.75,SSE,162,3.0,10.0,62,0.00,,---,0.00,VWS V13.01,2013-10-07 02:26:00,
2013-10-06 22:31:00,74.8,60.9,29.75,South,178,4.0,7.0,62,0.00,,---,0.00,VWS V13.01,2013-10-07 02:31:00,
2013-10-06 22:36:00,74.8,60.9,29.75,SSE,156,10.0,10.0,62,0.00,,---,0.00,VWS V13.01,2013-10-07 02:36:00,
2013-10-06 22:41:00,74.7,60.8,29.75,SSW,196,6.0,14.0,62,0.00,,---,0.00,VWS V13.01,2013-10-07 02:41:00,
2013-10-06 22:46:00,74.7,60.8,29.75,SSE,153,5.0,14.0,62,0.00,,---,0.00,VWS V13.01,2013-10-07 02:46:00,
2013-10-06 22:51:00,74.6,60.7,29.75,SSW,198,6.0,9.0,62,0.00,,---,0.00,VWS V13.01,2013-10-07 02:51:00,
2013-10-06 22:56:00,74.6,60.7,29.75,ESE,120,3.0,14.0,62,0.00,,---,0.00,VWS V13.01,2013-10-07 02:56:00,
2013-10-06 23:01:00,74.5,61.1,29.75,SE,140,3.0,13.0,63,0.00,,---,0.00,VWS V13.01,2013-10-07 03:01:00,
2013-10-06 23:06:00,74.4,61.0,29.74,SSW,206,4.0,14.0,63,0.00,,---,0.00,VWS V13.01,2013-10-07 03:06:00,
2013-10-06 23:11:00,74.3,61.3,29.74,South,182,6.0,17.0,64,0.00,,---,0.00,VWS V13.01,2013-10-07 03:11:00,
2013-10-06 23:16:00,74.2,61.2,29.74,South,174,7.0,17.0,64,0.00,,---,0.00,VWS V13.01,2013-10-07 03:16:00,
2013-10-06 23:21:00,74.1,61.2,29.74,SSE,159,7.0,10.0,64,0.00,,---,0.00,VWS V13.01,2013-10-07 03:21:00,
2013-10-06 23:26:00,74.0,61.1,29.74,ESE,121,1.0,10.0,64,0.00,,---,0.00,VWS V13.01,2013-10-07 03:26:00,
2013-10-06 23:31:00,73.9,61.4,29.74,SE,139,3.0,16.0,65,0.00,,---,0.00,VWS V13.01,2013-10-07 03:31:00,
2013-10-06 23:36:00,73.9,61.4,29.74,SE,144,3.0,20.0,65,0.00,,---,0.00,VWS V13.01,2013-10-07 03:36:00,
2013-10-06 23:41:00,73.8,61.3,29.73,SSE,159,3.0,9.0,65,0.00,,---,0.00,VWS V13.01,2013-10-07 03:41:00,
2013-10-06 23:46:00,73.7,61.2,29.74,SSE,156,3.0,16.0,65,0.00,,---,0.00,VWS V13.01,2013-10-07 03:46:00,
2013-10-06 23:51:00,73.6,61.1,29.74,ESE,119,2.0,9.0,65,0.00,,---,0.00,VWS V13.01,2013-10-07 03:51:00,
2013-10-06 23:56:00,73.6,61.5,29.73,ESE,115,1.0,13.0,66,0.00,,---,0.00,VWS V13.01,2013-10-07 03:56:00,